Location: Burkardroth
(50.2713°N, 9.9916°E)
Time: 11:04:56
(UTC+00:00)

Daily predictions for brighter satellites

Satellite Brightness Start Highest point End
(mag) Time Altitude Azimuth Time Altitude Azimuth Time Altitude Azimuth
Cosmos 1892 Rocket 3.6 19:31:47 10° N 19:36:07 85° W 19:40:25 10° S
Cosmos 1455 Rocket 3.0 19:32:05 10° S 19:36:28 77° E 19:40:52 10° NNE
USA 306 2.0 19:33:21 10° WSW 19:36:47 74° NNW 19:39:11 10° ENE
CZ-4B R/B 4.3 19:35:45 10° ESE 19:38:13 19° ENE 19:40:45 10° NNE
Okean O Rocket 1.9 19:35:00 10° SE 19:39:08 50° ENE 19:43:19 10° N
Cosmos 2100 Rocket 4.5 19:34:44 10° SSW 19:40:58 69° WNW 19:47:18 10° N
Meteor 1-27 4.2 19:36:45 10° S 19:42:22 78° E 19:47:57 10° NNE
Cosmos 2228 3.0 19:38:40 10° S 19:42:41 57° E 19:46:43 10° NNE
SL-24 R/B 4.4 19:38:40 10° NNE 19:42:57 77° WNW 19:47:38 10° SSW
NOSS 3-4 (A) 4.3 19:36:43 10° NW 19:42:57 50° NE 19:50:17 10° ESE
SL-16 R/B 2.7 19:37:47 10° NNW 19:43:19 49° NE 19:48:48 10° SE
NOSS 3-4 (C) 4.3 19:37:20 10° NW 19:43:36 50° NE 19:50:57 10° ESE
USA 186 2.2 19:41:15 10° SE 19:43:45 34° ENE 19:46:19 10° N
Okean 1 Rocket 4.4 19:44:44 10° SSW 19:48:57 44° WNW 19:53:13 10° N
Cosmos 1544 Rocket 4.4 19:46:21 10° SSE 19:50:09 31° E 19:53:59 10° NNE
Cosmos 2084 Rocket 4.2 19:47:04 10° NW 19:51:06 45° SW 19:55:10 10° SSE
Cosmos 2233 Rocket 4.0 19:45:18 10° S 19:51:25 68° E 19:57:32 10° NNE
ATLAS 2AS CENTAUR R/B 4.3 19:46:12 10° W 19:52:35 39° NNW 19:58:55 10° NE
SKYMED 3 4.3 19:53:05 10° NNE 19:57:03 86° ESE 20:01:01 10° SSW
CZ-2C R/B 4.2 19:56:01 10° E 19:57:28 13° ENE 19:58:55 10° NNE
COSMOS 2406 3.6 19:53:13 10° S 19:58:38 45° ESE 20:04:04 10° NE
Cosmos 1980 Rocket 3.5 19:53:32 10° NW 19:58:44 37° WSW 20:03:52 10° S
Okean-O 2.6 19:55:34 10° SSE 19:59:55 77° ENE 20:04:19 10° NNW
Cosmos 1782 2.7 19:56:36 10° SSW 20:00:06 72° W 20:03:39 10° N
CZ-4 R/B 3.2 19:57:27 10° SSW 20:00:29 25° W 20:03:34 10° NW
Ariane Rocket 3.8 19:58:02 10° SE 20:02:36 38° ENE 20:07:16 10° N
Meteor 1-20 Rocket 4.4 19:59:00 10° N 20:04:31 58° ENE 20:09:56 11° SSE
Cosmos 1933 4.1 20:02:11 11° SSE 20:05:25 30° E 20:08:47 10° NNE
SPOT 3 Rocket 3.9 20:01:10 11° SE 20:06:01 51° ENE 20:10:59 10° N
Cosmos 1758 Rocket 3.7 20:02:03 10° N 20:06:25 61° ENE 20:10:37 11° SSE
Spot 2 Rocket 3.5 20:02:53 10° SSE 20:07:54 83° WSW 20:12:59 10° NNW
Cosmos 1725 Rocket 4.4 20:03:58 10° SSW 20:10:11 67° WNW 20:16:25 10° N
Cosmos 2333 Rocket 2.4 20:05:31 10° NNW 20:11:13 68° ENE 20:16:16 13° SE
ERS-1 Rocket 4.3 20:09:29 10° SSW 20:14:07 38° W 20:18:49 10° NNW
Tsikada Rocket 4.3 20:12:01 10° NNW 20:18:10 70° W 20:24:16 10° S
Cosmos 2360 Rocket 2.6 20:19:31 10° NNW 20:25:07 53° NE 20:29:39 15° SE
USA 245 4.3 20:19:40 12° SSE 20:25:12 78° ENE 20:30:45 10° NNW
Cosmos 1461 2.6 20:22:58 10° SSW 20:26:34 52° SE 20:30:10 10° NE
CZ-4B R/B 4.4 20:21:56 10° SSW 20:27:13 40° W 20:32:28 10° NNW
CZ-4B R/B 3.5 20:25:36 15° SSE 20:29:27 64° ENE 20:34:16 10° N
Cosmos 1602 Rocket 3.6 20:26:20 10° N 20:30:38 62° ENE 20:33:50 17° SSE
CZ-4C R/B 3.7 20:26:22 10° W 20:30:39 37° NNW 20:36:08 10° NE
Cosmos 1992 Rocket 4.1 20:26:01 10° SSW 20:31:13 81° WNW 20:36:28 10° NNE
YAOGAN 11 4.2 20:29:18 10° NNE 20:33:45 80° WNW 20:38:13 10° SSW
Cosmos 1777 Rocket 4.2 20:32:12 10° NNW 20:37:25 62° ENE 20:41:09 19° SE
ISS -3.4 20:34:10 10° W 20:37:30 67° N 20:40:51 10° E
Cosmos 2219 Rocket 2.9 20:33:04 10° NNW 20:38:29 45° NE 20:42:48 16° ESE
Meteor 1-25 Rocket 4.2 20:33:35 10° N 20:39:17 80° ENE 20:43:46 16° SSE
Cosmos 220 Rocket 4.0 20:36:01 11° S 20:39:47 52° ESE 20:43:47 10° NNE
Cosmos 1437 Rocket 2.4 20:36:40 12° S 20:39:58 81° E 20:43:35 10° NNE
USA 290 3.5 20:39:45 21° ESE 20:40:06 22° ESE 20:42:36 10° NE
SL-08 R/B 4.4 20:39:20 10° N 20:43:58 47° WNW 20:48:29 10° SW
Cosmos 1503 Rocket 4.3 20:40:47 10° NNW 20:45:56 57° ENE 20:49:23 20° SE
Cosmos 1626 Rocket 4.3 20:42:43 10° NNW 20:46:56 49° W 20:51:00 11° SSW
DEBRIS 3.6 20:43:55 10° W 20:47:13 83° S 20:58:01 10° E
Cosmos 2098 Rocket 3.3 20:44:23 17° SSE 20:47:52 55° E 20:51:57 10° NNE
Cosmos 1076 Rocket 4.3 20:45:17 10° N 20:49:16 37° ENE 20:51:27 22° SE
NOSS 3-3 (A) 4.2 20:44:37 10° SW 20:49:54 67° NW 20:56:20 10° NE
Terra 4.1 20:48:39 10° SW 20:52:00 19° W 20:55:23 10° NW
Cosmos 2151 3.5 20:50:57 10° NNW 20:54:57 52° W 20:58:09 15° SSW
Cosmos 2322 Rocket 2.2 20:51:16 10° NNW 20:56:58 89° ENE 21:00:46 22° SSE
Cosmos 1486 Rocket 4.0 20:51:47 10° NNW 20:57:04 85° WSW 21:00:35 22° SSE
Cosmos 1513 Rocket 4.5 20:51:23 10° S 20:57:36 88° ESE 21:03:47 10° N
IRS-1C Rocket 4.2 20:53:40 18° S 20:57:39 80° WSW 21:02:58 10° NNW
Cosmos 1464 Rocket 4.0 20:53:50 16° S 20:58:45 65° E 21:04:53 10° NNE
Cosmos 1354 Rocket 4.4 20:55:04 10° NNW 21:00:13 53° ENE 21:03:26 22° SE
Cosmos 2082 Rocket 3.7 20:56:31 10° WSW 21:01:52 40° NW 21:07:14 10° NNE
USA 306 3.3 21:01:32 10° WNW 21:03:51 26° NNW 21:04:50 17° NE
Meteor 2-10 4.2 20:59:39 10° NNW 21:05:26 85° ENE 21:09:14 22° SSE
Cosmos 1606 Rocket 3.6 21:03:17 24° S 21:05:47 62° E 21:10:03 10° NNE
CZ-4B R/B 3.7 21:09:42 18° SSW 21:11:45 35° W 21:14:58 10° NNW
Cosmos 1766 4.0 21:09:30 10° N 21:12:20 28° ENE 21:13:02 25° E
USA 186 4.3 21:12:15 10° WSW 21:13:17 12° W 21:14:20 10° WNW
Cosmos 1726 Rocket 3.5 21:12:34 30° SSE 21:14:16 54° E 21:18:13 10° NNE
Cosmos 2237 Rocket 4.3 21:10:29 10° N 21:14:34 20° NE 21:18:38 10° E
Cosmos 1428 Rocket 4.5 21:08:51 10° N 21:15:07 84° E 21:19:10 23° SSE
Okean O Rocket 3.7 21:12:24 10° SW 21:15:35 20° W 21:18:49 10° NW
Cosmos 540 Rocket 3.8 21:13:17 25° SSE 21:15:52 45° ESE 21:20:46 10° NE
Cosmos 1092 Rocket 4.4 21:10:54 10° N 21:16:55 51° ENE 21:20:29 24° SE
Aureole 1 Rocket 4.3 21:12:55 10° NNW 21:18:27 54° ENE 21:22:39 22° SE
Cosmos 1805 3.6 21:17:50 10° NNW 21:20:58 43° W 21:22:21 26° SSW
Cosmos 2278 4.4 21:17:24 10° NW 21:22:50 46° WSW 21:26:23 21° S
COSMOS 2428 3.7 21:20:59 10° NNW 21:26:17 38° NE 21:30:12 17° ESE
SL-16 R/B 3.4 21:22:10 10° NW 21:27:13 34° WSW 21:30:55 16° SSW
CZ-2C R/B 3.2 21:27:14 27° SW 21:27:58 32° W 21:30:31 10° NNW
Okean 1-7 Rocket 4.0 21:23:42 10° NNW 21:28:06 58° W 21:30:35 25° SSW
Geosat 4.2 21:28:09 10° NE 21:33:01 48° ESE 21:35:08 30° S
NOSS 3-4 (A) 4.1 21:27:29 10° NW 21:34:04 56° SW 21:38:39 25° SSE
NOSS 3-4 (C) 4.1 21:28:07 10° NW 21:34:43 57° SW 21:39:17 25° SSE
Cosmos-2242 3.2 21:34:03 37° SE 21:35:15 51° E 21:39:15 10° NNE
Cosmos 2034 Rocket 4.0 21:32:54 22° S 21:37:10 82° E 21:43:32 10° N
Ariane Rocket 4.2 21:38:07 16° SSW 21:41:30 35° W 21:46:08 10° NNW
USA 234 4.3 21:41:54 10° ENE 21:46:57 23° SE 21:47:11 23° SE
TSX-5 3.8 21:46:25 10° NNW 21:49:29 49° NE 21:50:06 42° E
Cosmos 2333 Rocket 3.8 21:50:33 10° NW 21:55:00 24° WSW 21:58:17 15° SW
Helios 1B rocket 2.0 21:55:11 55° SE 21:55:47 70° ENE 21:59:17 10° N
Cosmos 2279 Rocket 4.4 21:53:17 30° SE 21:56:02 48° E 22:02:01 10° NNE
Cosmos 1763 Rocket 3.6 21:53:12 20° SSW 21:56:58 79° WNW 22:02:17 10° NNE
Cosmos 1470 3.1 21:54:51 10° N 21:57:58 37° ENE 21:58:12 37° E
Okean 1 4.1 21:56:18 24° SW 21:57:58 40° WNW 22:01:23 10° N
Cosmos 1536 2.5 21:54:48 10° N 21:58:30 84° ENE 21:59:12 57° SSE
Cosmos 2221 3.5 21:59:07 28° ESE 21:59:41 29° E 22:03:19 10° NNE
Cosmos 1707 2.0 21:59:51 75° NW 21:59:51 75° NW 22:02:33 10° N
Cosmos 1898 Rocket 3.8 21:54:35 10° NNW 21:59:43 58° ENE 22:02:03 31° SE
Cosmos 1634 Rocket 4.0 21:57:45 31° S 22:00:51 72° E 22:07:02 10° NNE
CSL-04 DEB 4.1 22:01:35 55° SE 22:02:12 71° ENE 22:05:50 10° NNW
Cosmos 2297 Rocket 3.7 22:01:44 19° ESE 22:02:30 19° E 22:06:21 10° ENE
Cosmos 1833 4.2 21:57:58 16° SSW 22:02:31 81° WNW 22:08:11 10° NNE
CZ-2C R/B 4.2 21:59:05 10° NNE 22:03:19 41° E 22:04:14 37° SE
Cosmos 1953 Rocket 4.1 21:59:08 10° NNW 22:03:22 51° W 22:04:56 33° SSW
Cosmos 990 Rocket 4.5 21:59:51 10° NNW 22:04:50 49° WSW 22:06:54 31° SSW
Cosmos 44 3.5 21:59:30 10° NW 22:04:55 74° SW 22:06:56 38° SSE
Cosmos 2360 Rocket 3.4 22:03:55 10° NW 22:08:50 31° WSW 22:11:23 22° SSW
Meteor 2-6 Rocket 4.4 22:08:15 34° SSE 22:10:50 66° E 22:16:45 10° NNE
Cosmos 2322 3.7 22:05:28 10° NNW 22:11:12 77° ENE 22:13:46 34° SE
USA 290 4.2 22:12:09 15° WSW 22:14:06 26° WNW 22:16:48 10° N
ISS -3.9 22:11:02 10° WNW 22:14:19 81° SW 22:14:19 81° SW
Cosmos 2026 Rocket 4.4 22:08:36 10° NNW 22:14:51 58° W 22:18:17 27° SSW
Cosmos 2058 Rocket 3.1 22:14:25 40° SSW 22:15:55 73° W 22:20:16 10° N
GP-B 4.3 22:14:08 10° NNE 22:17:54 28° E 22:18:52 25° ESE
SAR-Lupe-2 4.3 22:20:01 35° E 22:20:18 36° ENE 22:23:24 10° N
Helios 1A 3.3 22:17:17 10° N 22:21:08 56° WNW 22:22:30 35° SW
Cosmos 2219 Rocket 3.1 22:17:10 10° NW 22:22:21 38° WSW 22:24:29 28° SSW
Cosmos 2266 Rocket 4.4 22:18:11 10° N 22:24:05 52° ENE 22:26:50 30° SE
Cosmos 1975 2.6 22:21:22 10° N 22:25:02 64° ENE 22:25:24 59° ESE
KORONAS-FOTON 3.6 22:25:06 59° WSW 22:25:25 64° WNW 22:28:48 10° N
Cosmos 841 Rocket 3.7 22:28:15 42° SSE 22:29:39 55° ESE 22:34:45 10° NNE
RESURS DK-1 2.1 22:28:02 10° NNW 22:32:02 83° WSW 22:32:35 65° SSE
ARIANE 5 R/B 2.5 22:32:16 51° SSE 22:33:24 89° W 22:37:53 10° NNW
Meteor 1-19 Rocket 4.4 22:32:11 38° SSE 22:34:18 62° E 22:40:10 10° NNE
ALOS 2 2.5 22:33:58 50° SSE 22:35:03 79° ENE 22:39:28 10° NNW
Cosmos 2322 Rocket 4.1 22:36:41 10° WNW 22:40:13 17° W 22:42:34 13° SW
Cosmos 1271 Rocket 2.6 22:46:13 58° W 22:46:23 59° WNW 22:49:45 10° N
Cosmos 372 Rocket 4.4 22:41:39 10° NNW 22:46:32 47° WSW 22:47:53 38° SSW
SL-16 R/B 4.1 22:42:30 10° NNW 22:47:09 25° NE 22:51:48 10° E
Cosmos 1842 3.5 22:47:39 43° WNW 22:47:41 43° WNW 22:50:44 10° N
Lacrosse 4 Rocket 3.1 22:51:57 20° E 22:51:57 20° E 22:54:20 10° ENE
Spot 4 4.0 22:51:57 45° SSW 22:53:12 61° WSW 22:57:58 10° NNW
Meteor 2-9 Rocket 4.3 22:48:44 10° NNW 22:54:04 65° W 22:55:56 40° SSW
Cosmos 1766 Rocket 4.4 22:50:07 10° N 22:54:11 40° ENE 22:55:19 33° ESE
PSLV R/B 3.5 22:50:52 10° NNE 22:55:10 75° ESE 22:55:59 57° S
Cosmos 2237 Rocket 2.3 22:53:58 10° NNW 22:59:40 72° ENE 23:02:17 33° SE
CZ-2C R/B 3.0 22:58:57 33° SE 23:01:09 56° ENE 23:06:15 10° N
BREEZE-M DEB (TANK) 4.0 22:47:26 10° WSW 23:01:58 85° SSE 23:05:38 10° ENE
Cosmos 1980 3.7 22:58:07 10° NNW 23:03:49 81° ENE 23:06:13 36° SE
ARGOS Delta rocket 4.1 22:59:25 10° N 23:04:35 78° WNW 23:06:31 40° SSW
Cosmos 858 Rocket 4.4 22:59:57 10° NNW 23:05:08 83° WSW 23:06:42 46° SSE
Cosmos 1937 Rocket 3.6 23:03:10 10° NNW 23:08:12 57° WSW 23:09:27 44° SSW
COSMOS 2428 3.1 23:05:13 10° NW 23:10:39 47° WSW 23:12:11 38° SSW
Cosmos 2227 Rocket 3.4 23:11:04 25° SE 23:12:21 28° ESE 23:17:05 10° NE
NOSS 0 Rocket 4.0 23:07:18 10° NW 23:13:22 59° WSW 23:15:26 39° S
Meteor 2-4 Rocket 4.1 23:11:49 37° SE 23:13:31 50° E 23:18:51 10° NNE
Meteor 1-11 Rocket 3.8 23:08:16 10° NNW 23:13:54 69° W 23:15:45 42° SSW
MetOp-A 3.8 23:18:10 49° S 23:19:27 78° WSW 23:24:09 10° NNW
Meteor 1-10 Rocket 4.4 23:17:23 38° SSW 23:19:48 77° WNW 23:25:47 10° N
Cosmos 2263 Rocket 3.7 23:20:54 19° ESE 23:22:20 21° E 23:26:25 10° NE
Cosmos 1238 Rocket 2.8 23:25:54 61° SE 23:26:24 69° E 23:30:44 10° NNE
Cosmos 1812 Rocket 4.1 23:25:18 40° WSW 23:26:25 51° WNW 23:30:45 10° N
USA 234 3.2 23:24:12 10° ENE 23:30:46 70° SE 23:34:29 28° SW
SeaSat 1 2.8 23:28:37 26° SE 23:31:18 60° NE 23:36:08 10° NNW
CZ-2C R/B 3.3 23:27:43 10° NNE 23:33:31 88° W 23:35:48 39° SSW
ACS3 Solar Sail 2.6 23:29:11 10° NNE 23:34:46 39° E 23:37:20 27° SE
Meteor 1-27 Rocket 3.7 23:32:34 40° SSW 23:34:47 86° WNW 23:40:34 10° NNE
Cosmos 2221 3.8 23:35:23 25° WSW 23:36:39 30° WNW 23:40:23 10° N
ATLAS 2AS CENTAUR R/B 4.1 23:31:48 10° NW 23:38:05 38° NNE 23:44:21 10° E
Meteor 2-20 Rocket 4.2 23:37:28 41° S 23:39:36 89° ESE 23:45:21 10° N
BlueWalker 3 3.2 23:41:17 26° E 23:41:17 26° E 23:43:12 10° ENE
Cosmos 2297 Rocket 2.2 23:43:29 37° SW 23:45:49 82° WNW 23:51:31 10° NNE
Cosmos 1125 Rocket 4.5 23:41:45 10° NNW 23:46:50 44° ENE 23:50:47 16° SE
Okean 3 Rocket 4.1 23:43:19 10° N 23:47:47 55° ENE 23:49:21 36° SE
Landsat 5 3.3 23:46:57 10° NNE 23:51:04 75° ESE 23:51:40 60° SSE
Cosmos 1340 Rocket 4.3 23:48:17 10° N 23:51:41 29° ENE 23:53:20 21° ESE
Cosmos 1842 Rocket 3.5 23:53:33 53° SSE 23:54:31 76° E 23:58:57 10° NNE
GP-B 4.1 23:51:00 10° NNW 23:54:58 34° W 23:56:01 30° WSW
